Regional Weather Roundup
Issued by NWS New Orleans/Baton Rouge, LA

Home | Current Version | Previous Version | Text Only | Print | Product List | Glossary Off
Versions: 1 2 3 4 5 6 7 8 9 10 11 12 13 14 15 16 17 18 19 20 21 22 23 24 25 26 27 28 29 30 31 32 33 34 35 36 37 38 39 40 41 42 43 44 45 46 47 48 49 50

653
ASUS44 KLIX 222310
RWRLIX
NEW ORLEANS REGIONAL WEATHER ROUNDUP
NATIONAL WEATHER SERVICE NEW ORLEANS LA
600 PM CDT WED OCT 22 2014

NOTE: "FAIR" INDICATES FEW OR NO CLOUDS BELOW 12,000 FEET WITH NO
      SIGNIFICANT WEATHER AND/OR OBSTRUCTIONS TO VISIBILITY.
      SKY/WX - SKY CONDITION AND SIGNIFICANT WEATHER.
      TMP - AIR TEMPERATURE.     DP    - DEWPOINT TEMPERATURE.
      RH  - RELATIVE HUMIDITY.   PRES  - PRESSURE.
      HI  - HEAT INDEX.          WCI   - WIND CHILL INDEX.

*  THESE STATIONS ARE NOT NWS OR FAA STATIONS AND ARE NOT UNDER
   NWS QUALITY CONTROL.

LAZ038-040-048-061>063-065>067-069-230000-
SOUTHEAST LOUISIANA

CITY           SKY/WX    TMP DP  RH WIND       PRES   REMARKS
N.O. AUDUBON     N/A     76  53  44 MISG        N/A
N.O. INTL ARPT CLEAR     76  51  41 NE7       30.02S
N.O. LAKEFRONT CLEAR     75  57  53 NW3       30.03S
N.O. DOWNTOWN*   N/A     75  50  41 N6        30.03S
SLIDELL        CLEAR     76  57  51 CALM      30.03R
BATON ROUGE    CLEAR     74  52  46 NE6       30.04R
BOOTHVILLE     CLEAR     74  57  55 NE7       30.02S
BELLE CHASSE   CLEAR     73  55  53 NE5       30.02S
BOGALUSA*        N/A     75  48  38 N5        30.06R
NEW ROADS*       N/A     73  56  53 N8        30.04S
GONZALES*        N/A     75  53  46 N3        30.03R
HAMMOND*       CLEAR     77  46  33 NE5       30.05S
HOUMA*         CLEAR     75  54  46 N7        30.02S
PORT FOURCHON* CLEAR     75  55  50 NE16      30.05R

$$

MSZ070-080>082-230000-
SOUTHERN MISSISSIPPI

CITY           SKY/WX    TMP DP  RH WIND       PRES   REMARKS
MCCOMB         CLEAR     74  46  36 NE6       30.06S
GULFPORT       CLEAR     75  51  43 NE7       30.02R
BILOXI         CLEAR     75  52  44 N5        30.03R
PASCAGOULA     CLEAR     72  51  47 NE5       30.03R
STENNIS ARPT*  CLEAR     73  50  43 N5        30.03R

$$

COASTAL OBSERVATIONS
LAKE AND NEARSHORE STATIONS

STATION/POSITION TIME  TEMP    WIND        PRES    WAVE
                       AIR SEA DIR/SP/G            HT/PER
                 (UTC) (F)     (DEG/KT/KT) (MB)    (FT/S)
PASCAGOULA       2300   76      30/  9/ 10 1016.1
WAVELAND YACHT   2300   76      20/  9/ 10 1016.1
GRAND ISLE       2300   74 75   60/ 10/ 13 1017.0
SOUTHWEST PASS   2300   79 83              1016.5
NEW CANAL        2300   75 73  360/  2/  2 1017.2
SHELL BEACH      2300   75 70   60/  7/  8 1016.6

OFFSHORE STATIONS

STATION/POSITION TIME  TEMP    WIND        PRES    WAVE
                       AIR SEA DIR/SP/G            HT/PER
                 (UTC) (F)     (DEG/KT/KT) (MB)    (FT/S)
64 S DAUPHIN ISL 2229   74 80   40/ 12/ 16 1016.7    3/ 5

$$




USA.gov is the U.S. government's official web portal to all federal, state and local government web resources and services.